Location: Home
(40.5300°N, 105.0300°W)
Time: 12:32:03
(UTC-07:00)

STARLINK-2712 - Pass Details

Date: 24 October 2021
Orbit: 546 x 548 km, 53.1° (Epoch: 01 December)

Event Time Altitude Azimuth Distance (km) Brightness Sun altitude
Exits shadow 06:26:52 - 220° (SW) 2,694 6.8 -11.0°
Rises 06:26:53 0° 220° (SW) 2,692 6.8 -11.0°
Reaches altitude 10° 06:29:07 10° 217° (SW) 1,803 6.0 -10.6°
Maximum altitude 06:33:09 62° 137° (SE) 616 4.1 -9.8°
Drops below altitude 10° 06:37:13 10° 57° (ENE) 1,815 7.0 -9.1°
Sets 06:39:29 0° 54° (NE) 2,711 7.9 -8.6°
